SAS780 LHBP-EKCH

Flight info

Callsign SAS780
Flight time N/A
Altitude 24000
Route LITKU Y301 KALIF/N0439F380 DCT BILNA DCT REGLI L617 ADVAB L619 DENKO L996 GOSOT/N0406F280 L996 ROE M743 TIDVU
Aircraft A319/M-SDE3FGIJ1RWXY/LB1

Departure

Time 2026-05-04 18:45
Airport Budapest Liszt Ferenc International Airport (LHBP)

Arrival

Time N/A
Airport Copenhagen Kastrup Airport (EKCH)
Time Latitude Longitude Altitude Speed Heading
2026-05-04 18:23 47.43551 19.25817 484 ft 0 kts 312°
2026-05-04 18:35 47.43536 19.25838 479 ft 4 kts 329°
2026-05-04 18:35 47.43513 19.25849 475 ft 4 kts 16°
2026-05-04 18:35 47.43503 19.25843 476 ft 0 kts 40°
2026-05-04 18:37 47.43510 19.25853 480 ft 6 kts 43°
2026-05-04 18:37 47.43520 19.25866 476 ft 0 kts 42°
2026-05-04 18:40 47.43522 19.25869 483 ft 1 kts 42°
2026-05-04 18:40 47.43546 19.25901 477 ft 7 kts 42°
2026-05-04 18:40 47.43592 19.25963 479 ft 12 kts 42°
2026-05-04 18:40 47.43671 19.26039 485 ft 15 kts
2026-05-04 18:41 47.43755 19.25966 484 ft 13 kts 353°
2026-05-04 18:41 47.43829 19.26038 491 ft 13 kts 43°
2026-05-04 18:41 47.43899 19.26135 489 ft 15 kts 42°
2026-05-04 18:41 47.43953 19.26207 493 ft 0 kts 42°
2026-05-04 18:42 47.43960 19.26215 494 ft 5 kts 42°
2026-05-04 18:42 47.43984 19.26248 495 ft 5 kts 42°
2026-05-04 18:42 47.44002 19.26272 494 ft 0 kts 43°
2026-05-04 18:43 47.44002 19.26273 494 ft 0 kts 43°
2026-05-04 18:43 47.44030 19.26313 496 ft 11 kts 47°
2026-05-04 18:43 47.44064 19.26431 490 ft 15 kts 81°
2026-05-04 18:43 47.44027 19.26587 492 ft 18 kts 128°
2026-05-04 18:44 47.44011 19.26615 489 ft 0 kts 131°
2026-05-04 18:44 47.43942 19.26725 488 ft 41 kts 133°
2026-05-04 18:44 47.43613 19.27255 496 ft 98 kts 132°
2026-05-04 18:45 47.43024 19.28197 492 ft 150 kts 133°
2026-05-04 18:45 47.42277 19.29407 939 ft 159 kts 132°
2026-05-04 18:45 47.41644 19.30757 1572 ft 162 kts 124°
2026-05-04 18:45 47.41099 19.32233 2234 ft 164 kts 123°
2026-05-04 18:46 47.40550 19.33735 2719 ft 177 kts 123°
2026-05-04 18:46 47.39906 19.35455 3070 ft 200 kts 123°
2026-05-04 18:46 47.39194 19.37338 3448 ft 220 kts 123°
2026-05-04 18:46 47.38453 19.39445 3873 ft 246 kts 113°
2026-05-04 18:47 47.38402 19.42084 4458 ft 274 kts 75°
2026-05-04 18:47 47.39407 19.44515 5393 ft 283 kts 49°
2026-05-04 18:47 47.40855 19.46498 6432 ft 285 kts 39°
2026-05-04 18:47 47.42415 19.48330 7388 ft 288 kts 38°
2026-05-04 18:48 47.43987 19.50201 8310 ft 292 kts 40°